Wind_Speed
47 47 47 45 38 31 29 30 30 30 33 29 23 22 23 22 24 27 26 25 23 21 22 20 19 21 22 24 25 27 28 28 27 26 28 30 33 34 33 33 35 36 37 37 38 38 38 37 36 36 36 38 39 39 40 40 39 37 38 37 35 33 31 31 32 34 33 32 31 31 32 34 37 40 40 41 38 34 34 35 34 31 27 25 24
40 42 43 41 37 35 36 37 33 30 30 24 18 15 13 18 25 29 26 24 24 22 20 19 20 23 23 24 24 23 24 25 26 25 27 30 34 35 34 35 37 38 39 40 40 40 40 38 37 37 38 39 41 41 41 40 39 39 38 37 36 34 32 31 33 34 33 31 31 31 32 34 36 39 40 40 40 37 35 36 36 33 29 26 25
40 42 42 40 38 35 34 36 36 34 31 24 20 16 15 17 21 29 29 25 27 27 24 22 25 28 24 22 22 22 23 24 25 26 29 32 34 35 36 36 38 39 40 41 41 41 40 38 37 37 40 41 42 43 42 42 41 40 40 38 35 33 32 32 34 35 34 33 32 31 32 33 35 38 39 40 41 39 37 37 37 34 31 28 26
45 44 42 40 39 35 30 32 35 38 37 31 26 24 21 21 20 26 29 29 29 28 26 24 27 28 23 21 22 22 24 25 28 30 31 31 31 33 34 36 39 41 41 41 41 41 39 37 37 37 40 42 43 44 44 44 43 42 40 37 35 33 33 34 36 37 36 35 34 32 32 33 35 37 39 40 40 40 38 38 38 36 33 30 28
51 47 45 45 43 38 34 36 41 44 44 40 35 31 25 24 23 25 29 31 31 29 27 27 27 26 24 23 23 23 26 29 31 29 26 28 30 32 33 36 38 38 39 39 39 38 36 36 36 36 38 41 43 43 42 42 42 41 39 35 33 33 35 36 37 37 36 35 34 33 33 33 34 36 38 40 41 41 40 39 39 38 35 32 30
52 45 43 45 44 42 41 44 47 49 48 46 43 37 29 28 30 30 31 30 30 31 30 30 29 29 30 30 29 29 30 30 27 23 23 26 30 32 32 34 35 33 33 33 32 32 31 32 33 33 36 39 41 41 40 40 39 37 35 33 33 35 36 36 36 35 35 34 33 33 34 34 34 35 37 40 41 42 42 41 41 40 37 33 31
55 50 46 47 48 47 48 49 49 48 48 46 42 36 31 33 37 34 29 26 27 29 29 28 26 27 30 29 29 29 26 24 22 22 25 29 32 34 33 34 33 29 28 28 28 27 26 28 31 31 32 35 38 39 39 39 38 36 34 34 35 35 36 36 36 34 34 33 33 33 34 35 36 36 38 40 42 43 44 43 42 41 39 36 34
57 56 55 56 58 58 56 51 46 43 42 42 40 39 36 35 35 32 26 24 25 25 27 30 28 25 25 24 24 26 24 23 24 27 31 31 32 33 30 30 31 29 29 29 27 26 26 28 31 32 34 35 37 39 41 41 40 38 37 37 37 37 38 38 38 37 36 36 35 35 35 36 36 37 38 40 42 44 45 44 44 43 41 40 37
59 61 61 60 61 58 53 48 45 44 42 42 41 39 36 34 32 31 29 28 28 25 26 31 32 27 25 24 24 26 26 27 30 33 34 32 30 29 28 29 31 32 31 29 28 28 29 31 33 34 35 35 36 36 39 41 41 41 39 39 39 39 40 40 40 41 41 40 40 40 40 39 38 38 38 39 41 44 45 46 45 44 43 42 39
62 62 58 55 53 48 46 46 45 45 43 41 40 37 35 34 32 31 31 31 32 30 29 33 34 31 28 27 26 28 28 29 32 35 34 32 29 28 28 28 30 32 31 29 29 28 29 30 32 32 31 31 31 31 33 37 39 40 39 38 38 39 40 40 40 41 42 43 43 43 44 44 43 41 40 39 41 43 45 46 46 45 45 43 41
58 54 50 50 50 47 45 45 46 46 43 38 39 40 39 38 35 34 34 32 32 31 31 31 31 30 30 30 28 28 29 29 32 35 34 32 29 27 27 26 27 30 32 31 28 26 26 26 26 29 31 31 31 30 30 34 37 39 39 38 37 37 38 39 38 37 38 40 42 43 45 46 47 46 44 42 41 43 45 46 46 46 46 45 44
48 47 47 48 48 46 43 44 46 48 45 39 40 43 43 43 40 38 37 32 27 26 26 26 25 27 28 28 28 28 29 30 32 33 32 30 27 26 26 26 26 28 29 27 24 25 26 27 27 29 32 33 34 32 31 32 34 37 38 38 37 36 36 37 36 34 32 33 35 39 42 45 47 48 47 45 44 43 45 46 47 47 46 46 45
42 43 42 42 42 42 41 43 46 48 47 42 42 45 45 45 43 41 37 29 21 19 23 27 27 27 26 26 27 28 28 28 28 29 28 28 27 26 25 22 23 24 23 22 24 27 28 31 33 32 32 33 34 35 34 33 33 35 36 36 36 36 37 37 37 35 34 32 31 33 37 41 45 48 49 48 46 44 44 46 48 48 47 46 45
37 37 36 35 37 40 42 44 45 47 49 45 43 45 45 45 46 41 32 26 22 21 24 28 29 28 26 27 27 27 29 28 26 24 22 23 25 24 22 20 19 21 22 23 27 30 31 31 33 33 33 32 33 34 34 34 35 36 37 37 36 37 38 38 38 38 38 36 33 32 34 38 42 45 48 48 47 45 44 45 47 48 47 46 45
30 31 31 31 33 37 40 44 45 44 47 47 45 45 45 45 44 36 28 26 29 30 28 28 31 30 28 28 28 28 31 31 29 26 21 21 22 22 19 15 15 20 24 26 29 33 35 33 32 34 35 34 33 33 34 35 34 34 35 37 37 39 39 39 38 39 39 38 36 33 33 36 39 42 45 48 47 46 44 45 46 46 46 46 46
25 26 27 28 30 34 37 42 46 45 47 48 46 44 43 43 41 35 31 28 30 34 34 33 33 31 29 29 30 31 32 32 30 28 27 27 24 22 19 14 15 21 25 27 29 31 34 34 33 34 35 34 33 32 34 35 33 30 31 32 33 35 36 36 36 36 37 36 35 33 31 33 37 40 43 46 46 45 44 44 44 44 44 44 46
22 23 24 26 28 31 34 37 41 44 45 45 42 39 39 39 38 36 33 29 29 33 35 35 33 31 30 30 31 33 35 33 30 30 33 33 27 23 21 22 23 24 26 28 29 30 33 35 36 36 37 37 37 36 36 37 37 36 35 33 33 33 34 36 37 37 37 35 34 33 31 31 35 38 40 43 44 44 42 42 44 44 42 42 43
22 23 23 25 27 30 32 34 36 38 40 41 39 38 39 38 37 35 34 33 33 35 35 35 35 33 32 30 32 35 36 33 32 33 36 37 33 26 24 27 28 28 29 30 31 32 33 35 37 39 40 41 43 43 42 42 43 44 44 43 42 41 42 43 43 42 39 36 34 33 32 31 33 37 37 38 40 42 41 41 43 43 42 41 40
23 23 23 24 26 29 32 34 36 37 38 39 39 40 42 42 40 38 37 37 38 39 38 38 37 36 35 33 33 36 36 34 33 35 37 37 35 33 31 32 32 33 35 35 33 33 34 36 38 40 42 44 45 47 48 47 47 48 49 49 48 48 48 48 47 45 41 37 35 34 33 32 32 35 36 34 37 42 42 41 42 41 40 39 37
24 23 23 24 27 29 31 34 37 38 38 38 37 40 42 44 45 44 42 42 43 44 43 41 39 37 37 35 36 37 36 34 33 35 38 38 38 38 38 38 38 38 38 38 37 36 37 38 40 41 43 44 45 47 49 51 52 53 53 54 54 53 52 51 48 44 41 38 37 36 34 33 33 34 35 34 35 39 41 41 41 40 39 37 36
26 25 25 25 27 29 31 34 36 38 39 39 38 40 42 45 47 48 48 47 48 48 45 43 40 38 36 35 35 35 33 30 31 34 37 40 41 41 42 43 42 40 39 39 40 40 41 42 43 45 46 47 47 48 49 51 52 53 54 55 55 54 52 50 46 44 42 40 38 37 35 34 34 34 34 33 32 34 36 38 39 39 38 37 36
28 28 27 27 27 29 30 33 35 38 40 41 41 42 44 45 47 49 50 49 49 48 45 43 40 37 36 34 34 34 32 31 32 34 36 41 43 43 44 43 41 39 38 39 40 41 42 43 43 44 45 46 47 47 48 49 51 52 53 54 54 54 53 51 49 46 44 42 40 38 36 35 35 35 35 34 33 33 33 34 35 36 36 36 37
29 28 28 28 28 28 29 31 33 36 38 40 42 43 45 46 47 47 47 47 46 44 43 41 39 38 37 35 35 35 33 33 34 34 36 40 43 42 41 40 38 38 39 39 40 41 41 40 40 39 39 40 40 42 44 45 47 49 51 52 53 54 54 53 51 48 46 44 42 39 37 36 36 36 37 37 36 35 32 30 32 34 35 36 38
27 27 27 28 29 29 30 31 31 33 34 36 38 40 41 42 43 44 44 44 44 43 42 41 40 41 40 38 38 38 36 35 35 35 37 39 41 41 40 39 39 40 40 41 41 41 40 40 39 38 37 36 36 37 38 39 41 42 44 46 47 47 48 48 48 47 46 45 43 40 38 37 36 38 40 39 39 39 37 35 34 34 36 37 39
24 24 24 25 26 27 28 30 31 31 33 34 35 37 38 39 40 40 41 42 42 41 41 41 42 43 42 42 41 41 40 39 38 38 39 40 40 40 40 41 41 42 42 41 41 40 40 39 38 37 37 36 35 34 34 35 36 37 38 39 40 40 40 41 42 43 43 43 41 39 39 37 36 40 43 42 42 42 44 43 41 38 38 39 41
22 22 23 23 24 25 26 27 28 29 31 32 33 34 35 36 37 38 39 39 39 39 40 41 42 42 42 42 42 42 42 43 42 41 41 41 41 42 42 42 42 42 41 40 40 40 40 39 38 38 37 36 36 35 34 34 34 35 35 35 35 36 36 36 37 38 38 39 39 38 40 38 36 40 45 46 45 45 47 48 47 44 42 41 43
24 23 23 23 24 24 25 25 25 26 28 29 30 30 31 31 32 34 35 36 36 37 38 39 39 39 40 40 41 42 43 45 45 44 44 43 43 44 44 43 42 41 39 39 39 39 39 40 39 39 38 38 37 36 36 35 34 34 34 34 34 35 36 36 36 36 36 37 38 39 40 39 37 40 45 49 49 48 48 51 51 49 46 44 43
29 28 26 26 26 26 26 26 26 27 28 29 29 29 30 30 30 31 32 33 34 35 36 37 37 38 38 39 39 41 42 44 45 46 46 45 45 45 45 45 44 43 42 41 40 40 40 40 40 40 39 39 38 38 37 36 35 35 35 34 34 35 37 38 37 37 37 38 38 39 40 39 39 40 44 49 52 51 51 52 53 53 51 49 46
35 33 32 31 30 29 29 29 29 30 30 31 31 31 32 32 32 32 33 34 35 36 37 38 38 39 39 39 39 39 39 40 42 44 45 45 45 45 45 46 47 47 45 44 44 43 42 42 42 42 41 40 40 39 39 38 37 36 36 35 35 35 37 39 40 39 38 39 39 40 40 41 41 42 44 47 51 54 54 53 54 55 55 54 51
38 37 37 37 34 32 31 31 31 31 32 32 32 33 34 34 34 35 36 36 37 38 39 40 41 41 41 41 40 40 40 40 40 41 41 43 44 45 46 47 49 49 49 48 47 46 46 45 44 43 42 41 41 41 41 40 39 39 38 37 37 36 37 38 40 41 40 41 41 41 42 42 41 42 45 47 50 53 56 56 56 55 55 56 57
40 40 41 40 38 35 34 34 34 34 34 34 34 34 35 36 36 37 38 39 40 41 42 42 43 43 43 43 43 42 42 42 42 42 42 43 44 45 47 48 49 50 49 48 47 48 48 47 46 44 43 43 42 42 42 42 42 41 40 40 39 38 38 38 39 41 42 42 43 43 43 43 43 43 45 48 50 53 55 57 58 57 56 56 58
44 44 44 43 41 39 38 38 38 38 38 38 38 38 38 38 39 39 40 40 41 42 43 44 44 44 44 44 44 44 45 45 45 45 45 45 45 46 47 48 49 49 47 47 47 49 49 48 47 46 45 44 44 44 43 43 43 43 43 42 41 40 39 39 39 40 41 43 45 46 46 45 45 44 45 47 50 53 56 58 59 59 59 59 59
47 46 45 43 41 40 40 40 40 41 42 42 42 42 42 42 42 42 42 42 43 44 44 45 45 45 45 45 45 46 46 46 47 46 46 46 46 47 48 49 49 49 49 48 49 50 50 49 49 48 48 47 46 46 46 45 44 44 44 44 44 43 42 41 41 40 41 43 45 47 48 49 48 47 47 48 50 52 55 58 60 61 61 62 62
47 47 46 45 43 43 43 43 43 44 45 46 46 46 46 46 46 46 46 46 46 46 47 47 47 48 48 48 48 48 48 49 49 49 49 49 49 50 51 51 51 51 51 52 51 51 50 50 49 49 48 48 48 48 48 47 47 45 44 44 44 44 43 43 43 43 43 43 45 47 49 50 51 51 51 51 51 53 54 57 59 61 62 64 64
48 48 48 48 48 49 48 48 48 48 49 49 49 49 49 49 48 48 49 49 50 50 50 50 50 51 51 52 52 52 53 53 54 54 54 54 54 54 54 54 54 54 54 54 53 52 52 51 50 50 49 49 49 50 50 49 49 48 47 45 44 44 44 44 44 45 45 45 46 47 49 51 52 53 54 54 54 55 56 57 59 61 62 64 66
51 51 51 50 49 51 53 53 52 51 51 51 52 52 52 52 51 51 51 52 51 51 52 52 52 52 53 53 54 54 55 55 56 56 56 56 56 55 55 55 56 56 56 55 54 54 54 53 53 52 52 52 52 52 52 51 51 51 50 49 48 48 49 49 48 48 48 48 49 49 50 52 53 55 56 56 57 57 58 59 59 60 62 64 66
54 54 52 50 50 53 56 56 55 55 54 54 54 54 55 55 54 54 54 54 53 53 53 53 52 52 52 52 53 54 54 54 54 55 55 55 54 54 54 55 56 56 56 55 55 55 54 54 54 53 53 54 54 53 53 53 53 53 53 53 54 54 55 54 53 52 51 51 51 52 53 54 55 56 57 58 59 60 60 61 61 62 63 64 65
56 55 54 55 58 60 59 58 58 58 57 56 56 57 58 58 57 57 56 55 55 55 54 53 52 52 51 51 51 51 52 52 52 52 52 52 52 52 52 52 53 54 54 54 54 54 54 53 53 53 53 54 54 54 54 54 55 55 55 56 57 57 58 58 57 56 56 55 55 55 56 56 57 58 58 60 61 62 62 62 63 64 65 65 65
60 60 61 64 65 63 60 59 59 59 59 59 60 60 60 60 59 58 58 57 57 56 55 54 52 51 50 50 50 49 50 50 50 50 51 51 51 51 50 51 51 52 52 52 53 53 53 52 52 52 53 53 53 54 55 55 56 56 57 58 59 59 60 60 61 60 60 60 59 58 59 60 60 60 60 61 62 64 64 65 66 67 67 67 68
66 67 68 67 65 62 61 61 61 61 62 62 62 63 63 62 61 60 59 58 57 56 55 54 52 50 49 48 48 48 48 48 49 49 49 49 50 49 49 49 50 50 50 51 51 52 52 52 51 51 52 52 52 52 53 53 54 55 57 58 60 60 61 62 63 63 62 62 62 61 61 62 63 64 64 63 64 65 65 66 67 69 69 69 70
70 69 68 66 64 63 63 63 62 62 63 63 64 65 64 63 63 62 60 59 57 56 55 53 51 49 47 46 47 47 47 48 48 49 49 49 50 49 49 49 49 49 49 50 51 52 52 52 51 50 51 51 50 51 52 53 54 54 56 57 59 60 62 63 64 64 63 63 63 63 63 63 64 65 67 67 67 68 67 67 68 70 71 72 72
71 70 69 67 67 66 65 65 64 64 64 64 65 66 65 64 64 62 60 59 58 56 54 51 49 47 45 45 46 47 49 49 50 51 51 51 51 51 51 50 50 49 49 50 51 52 52 51 50 50 50 51 51 52 53 54 54 55 56 58 59 60 62 63 64 64 64 63 63 64 65 65 64 65 67 69 70 71 71 70 70 71 72 73 74
71 71 70 69 69 68 67 67 66 65 64 63 64 64 64 63 63 62 61 60 58 56 53 49 47 46 44 42 42 44 46 47 48 50 51 51 51 53 53 53 52 51 51 51 52 52 52 51 51 52 52 54 53 53 54 54 53 54 55 57 58 59 61 62 63 65 65 64 63 65 67 67 66 65 67 69 70 72 73 74 74 74 75 75 75
71 71 71 71 69 68 68 68 67 67 65 63 63 63 62 62 62 61 60 58 56 54 52 49 49 47 44 42 41 41 41 42 44 46 48 48 49 52 54 54 53 52 52 52 52 52 52 52 53 53 54 55 55 53 54 54 54 54 56 58 58 59 60 61 62 63 65 64 63 64 67 69 68 67 68 70 70 71 73 75 76 77 78 78 78
71 68 69 69 69 68 68 68 68 67 64 62 62 62 61 62 62 61 60 58 57 56 54 53 52 49 46 46 48 46 45 45 46 47 47 48 50 52 52 52 52 52 52 53 53 53 53 54 54 54 54 55 55 54 55 57 57 58 59 61 62 62 62 63 64 64 65 65 64 63 65 69 70 69 70 71 72 73 74 75 77 78 80 81 82
71 69 70 70 69 69 70 69 69 68 65 63 64 65 65 65 65 64 65 63 61 59 58 54 49 43 43 47 50 50 49 48 50 52 53 52 53 54 54 55 57 57 57 58 58 58 57 55 55 55 55 56 56 56 57 58 59 59 60 60 62 64 65 66 67 67 68 68 67 65 66 69 71 70 70 72 73 74 75 77 78 79 81 82 84
74 75 74 74 74 74 73 72 71 70 68 68 71 72 72 72 72 71 71 69 65 62 59 56 52 49 49 51 50 50 49 50 53 56 58 58 58 60 63 65 65 64 63 63 62 61 59 58 57 57 57 57 57 57 58 58 58 58 58 59 60 61 63 66 68 69 70 70 69 68 67 70 72 72 72 73 74 74 76 77 78 80 82 83 85
77 78 78 79 79 78 78 78 77 76 74 75 77 78 78 78 77 75 74 71 67 64 61 61 61 61 62 61 59 59 59 60 61 63 65 66 68 69 71 70 69 68 68 66 64 63 62 62 61 60 60 60 60 59 59 59 59 58 59 59 60 60 61 63 65 68 69 70 70 68 67 69 72 73 72 74 75 76 77 78 78 79 81 84 86
80 80 81 81 81 82 81 82 82 81 80 81 82 81 81 80 78 76 73 70 68 65 63 63 63 64 65 66 66 67 67 68 69 69 71 72 72 72 72 71 71 71 71 70 68 67 66 65 64 64 64 64 64 64 63 63 62 61 60 60 60 59 59 60 61 64 66 68 69 68 67 69 71 72 73 74 75 77 78 79 80 80 81 84 86
83 83 84 84 84 84 83 83 83 82 79 79 80 80 78 77 75 74 71 69 67 65 64 65 65 66 67 69 70 70 70 71 72 72 73 73 73 74 74 74 74 74 75 74 73 72 71 69 69 68 68 67 67 67 66 66 65 63 61 60 59 58 57 57 58 59 62 65 66 66 65 67 69 70 71 72 74 76 79 80 82 82 83 85 86
86 86 86 85 83 83 81 80 79 77 73 72 73 73 72 71 70 69 67 66 66 67 67 67 68 69 69 70 72 73 73 74 75 75 75 76 76 77 77 77 77 77 77 77 75 75 74 73 73 72 71 69 68 67 66 66 65 63 61 59 58 56 55 56 57 58 60 63 65 64 63 65 66 68 69 70 71 74 78 80 82 84 85 86 88
Wind_Direction
269 269 268 274 280 269 265 276 282 298 312 317 327 336 325 308 302 303 307 311 309 303 296 292 290 286 281 275 272 271 270 269 268 263 263 265 266 266 266 267 268 268 269 269 270 272 273 273 269 263 258 256 259 261 262 263 264 264 265 265 263 261 260 260 258 252 247 243 241 240 239 236 234 235 237 240 243 244 242 241 245 250 253 253 254
269 267 267 271 275 269 263 266 272 289 302 306 318 329 311 295 296 296 300 305 304 300 294 291 294 293 284 275 273 270 266 264 261 257 260 267 269 268 266 267 269 270 271 272 272 273 274 272 267 261 256 255 257 260 263 264 264 265 265 263 261 259 258 256 253 247 242 239 239 238 238 237 235 236 238 241 244 245 242 239 242 249 251 253 255
271 268 266 267 271 271 266 263 267 279 286 290 298 295 269 259 275 285 291 297 297 294 287 282 286 285 275 266 266 264 263 261 257 260 267 271 271 270 269 270 272 274 274 274 273 274 274 271 267 260 256 254 255 258 261 263 264 265 265 261 257 255 254 252 248 242 240 239 238 237 237 237 237 236 237 240 243 245 243 238 239 246 249 250 254
270 267 263 263 266 271 271 266 269 276 278 277 284 286 267 247 254 270 281 290 289 287 284 278 278 277 270 265 266 263 262 262 265 272 274 272 268 268 273 273 274 275 275 275 275 275 274 270 267 262 257 255 255 258 260 263 264 263 262 257 255 253 252 249 244 239 239 240 240 240 239 238 238 237 237 239 241 243 243 239 238 242 246 247 249
266 263 260 261 263 265 267 269 273 278 276 271 273 278 263 246 250 261 275 286 284 279 279 278 273 270 270 272 273 272 271 272 273 275 273 271 269 267 272 273 271 272 273 274 275 274 272 269 266 261 258 256 257 259 261 262 261 258 256 254 253 252 252 250 244 240 239 239 240 242 241 240 239 239 238 238 240 242 242 240 237 239 243 244 245
260 258 258 262 264 264 269 275 277 277 273 267 268 268 254 246 251 259 273 281 279 278 280 281 274 267 269 272 276 280 280 277 272 270 266 266 269 267 268 271 270 269 270 271 272 272 272 271 269 266 261 257 257 259 259 258 255 254 253 251 251 251 252 250 246 244 242 241 241 243 243 242 240 239 239 238 239 240 241 240 238 239 242 242 242
255 256 257 264 268 270 274 278 277 273 268 265 262 255 253 258 257 258 267 269 270 280 288 290 284 273 271 272 277 281 279 274 266 264 262 262 267 265 262 266 269 269 269 270 270 268 267 265 265 266 265 261 258 258 257 255 254 252 251 248 248 252 252 249 247 245 243 243 243 243 244 243 242 240 238 238 238 238 239 240 239 241 243 241 239
255 257 260 265 270 272 274 274 268 262 260 262 255 247 254 263 259 255 260 263 268 282 292 293 291 284 278 278 281 280 276 272 267 265 264 266 268 265 263 267 267 266 267 267 266 262 257 255 258 262 264 264 262 258 255 256 256 256 252 246 244 249 251 250 250 249 247 246 245 245 244 244 244 243 241 239 238 237 237 239 241 242 242 241 239
257 261 263 266 269 270 270 267 260 253 253 258 256 251 252 254 253 254 258 262 267 278 287 287 286 283 280 283 282 277 272 269 269 269 269 270 268 266 268 269 265 264 266 265 262 261 260 259 261 264 264 264 265 262 257 256 258 257 252 246 244 247 250 252 252 253 252 251 250 249 248 246 245 244 243 243 241 239 237 238 241 243 243 242 241
262 263 262 263 265 266 266 263 255 251 250 252 255 252 246 247 250 255 261 264 267 274 278 277 277 276 277 283 283 278 273 269 270 273 275 274 271 269 270 265 262 265 266 261 259 262 267 266 266 267 264 262 264 265 260 257 255 252 248 246 246 247 249 251 252 253 254 254 253 252 250 249 247 245 244 243 242 240 238 238 240 243 244 243 242
263 263 261 262 263 263 263 255 244 246 247 244 248 246 243 248 251 257 265 267 269 277 278 272 270 273 279 283 282 279 276 273 273 277 281 281 279 278 275 267 257 257 262 262 260 263 268 268 266 263 259 255 254 257 258 256 253 250 247 246 248 248 248 249 250 252 253 254 253 252 249 247 246 245 244 243 243 241 238 237 238 241 244 244 245
262 262 261 261 261 259 254 243 235 241 245 240 240 242 244 249 253 258 263 263 270 280 277 268 267 273 280 280 277 276 276 276 279 281 281 283 285 283 279 271 258 253 258 262 259 258 260 259 256 256 256 254 250 248 251 255 255 254 251 249 250 250 248 248 249 249 251 254 256 254 250 247 245 243 242 242 243 242 239 236 236 238 242 244 246
262 262 260 256 253 248 241 234 232 237 242 242 238 241 245 249 254 258 258 258 262 270 267 266 271 273 275 277 273 271 272 277 284 286 285 284 285 284 281 271 257 254 257 257 253 252 253 251 251 254 257 254 252 250 249 253 257 257 255 253 252 251 249 250 250 249 251 256 260 260 256 250 246 243 241 241 241 242 240 236 235 237 240 242 245
263 260 257 252 244 239 233 230 231 235 241 243 240 242 247 250 253 254 254 249 238 242 255 264 271 273 277 278 270 265 267 269 275 282 289 289 284 282 281 270 251 245 249 252 251 249 249 250 252 254 254 253 254 256 253 251 254 257 256 254 252 250 249 251 253 253 255 258 262 266 263 255 249 245 241 239 240 241 239 237 235 235 237 240 243
260 256 251 247 240 236 231 227 228 231 236 242 244 246 247 249 248 244 244 243 233 235 247 260 269 271 275 277 270 265 263 264 267 269 271 277 280 277 275 271 254 243 241 244 248 251 252 254 254 252 252 254 258 260 256 251 251 254 254 252 251 250 251 254 256 256 258 260 262 266 267 260 252 247 243 240 239 239 238 236 235 235 236 239 242
252 249 244 241 238 235 232 228 227 228 233 240 245 246 245 245 241 235 238 242 238 240 248 259 267 267 267 271 271 268 263 260 263 265 259 258 266 270 261 243 237 243 243 243 246 251 250 250 252 251 251 254 256 257 254 248 246 249 250 249 248 250 252 254 255 256 257 260 262 264 268 265 255 249 245 241 239 238 237 236 235 235 235 237 241
245 243 239 237 236 233 230 226 226 227 230 234 236 238 240 241 238 234 236 238 241 247 253 256 260 261 261 262 264 265 264 259 257 261 258 253 256 261 250 234 234 244 249 247 244 245 246 246 249 252 252 252 252 251 250 246 244 247 248 246 246 248 253 257 259 260 260 261 261 262 267 269 259 251 247 243 240 238 236 237 237 236 235 237 240
245 241 237 233 232 230 226 220 218 219 221 223 227 233 238 240 238 235 235 240 246 252 255 256 258 258 255 257 259 261 264 260 256 257 255 252 253 250 244 242 244 248 252 252 246 244 246 247 248 251 251 251 251 251 251 249 248 249 249 248 248 251 255 260 263 264 263 261 261 263 267 270 263 253 248 245 241 237 234 238 240 238 237 238 241
250 245 239 233 229 227 224 218 215 215 218 223 228 233 237 239 239 238 240 245 249 252 255 258 260 257 254 254 254 255 259 260 257 256 253 251 247 243 244 248 250 254 256 257 255 252 251 250 251 251 252 252 251 250 250 250 250 250 251 251 251 254 257 261 264 263 261 259 260 263 267 271 265 253 246 243 239 234 231 235 240 240 240 240 243
253 249 243 236 230 226 223 219 217 218 222 227 231 232 234 237 239 240 242 245 249 251 255 258 259 257 256 253 250 251 257 259 256 253 251 248 245 244 247 250 252 255 256 258 262 264 263 261 260 258 257 256 254 252 250 250 251 252 253 254 255 257 259 260 261 260 257 257 259 262 265 269 265 252 243 237 235 236 234 235 239 241 241 241 244
256 253 248 241 235 230 227 224 222 223 225 228 230 231 233 235 237 238 240 244 247 250 252 255 256 257 256 254 252 251 253 254 253 251 247 243 243 245 247 250 254 255 254 258 262 266 267 267 266 264 263 261 258 256 253 252 252 253 254 255 256 257 257 257 257 256 256 256 258 260 263 266 261 249 239 229 231 239 241 242 243 242 242 242 244
259 256 253 248 243 238 234 231 229 228 228 229 231 232 233 236 238 240 242 245 247 249 250 252 254 255 256 256 254 253 250 246 247 249 246 242 242 245 248 253 257 257 258 260 262 264 265 266 265 263 262 261 259 258 256 254 254 254 254 255 255 255 255 256 256 256 256 256 257 258 260 261 254 243 233 222 225 235 240 246 248 245 242 242 243
261 259 257 255 252 249 245 242 239 236 235 235 235 236 236 238 241 244 246 247 249 250 252 253 255 256 257 258 255 254 251 245 245 248 248 246 246 249 253 256 259 260 261 261 262 263 263 264 264 261 259 258 258 257 256 256 256 256 256 256 256 255 255 256 256 255 256 256 256 256 257 255 246 237 229 220 222 229 229 236 243 243 242 241 241
265 264 262 259 257 255 252 250 249 246 244 243 242 242 242 243 245 247 249 251 252 253 254 255 257 258 258 257 256 255 251 247 246 250 252 252 254 257 259 261 262 262 263 263 264 264 263 263 263 261 259 258 257 257 257 257 257 258 258 259 258 257 256 255 255 255 255 255 255 253 251 247 238 231 226 221 223 226 224 225 230 233 237 239 239
270 268 265 263 261 258 256 255 254 253 252 251 250 250 250 250 250 252 253 254 255 255 256 256 257 257 257 255 254 253 253 252 251 252 256 258 260 263 264 264 264 264 265 265 266 267 267 266 264 263 262 261 260 260 260 259 259 259 260 261 259 257 256 256 255 254 254 253 252 249 242 237 232 228 226 222 223 224 223 223 225 226 229 233 235
275 274 271 269 268 265 263 261 259 258 256 255 255 255 255 256 256 256 257 257 258 258 258 258 258 258 258 256 254 253 252 253 254 254 256 259 262 263 263 262 262 262 264 265 266 268 268 267 268 267 266 265 264 263 263 263 262 261 261 262 259 255 253 254 254 252 251 249 246 241 235 231 229 228 227 225 223 224 224 224 226 226 227 230 234
277 277 276 275 273 271 268 267 265 264 262 262 261 260 260 260 259 259 259 259 259 258 258 258 258 258 258 258 257 255 253 253 254 254 256 258 260 260 260 260 259 259 260 263 265 266 266 267 267 268 267 267 266 265 264 264 265 264 262 261 259 254 250 250 251 249 245 243 241 237 232 230 229 228 229 228 225 224 225 226 226 227 228 230 232
279 277 278 279 279 275 272 270 270 269 270 269 267 265 264 263 262 261 261 260 260 260 260 260 260 260 260 260 260 258 256 255 255 255 255 257 259 260 260 260 260 260 261 263 265 266 266 266 265 266 266 266 266 264 263 263 264 265 264 262 260 255 250 248 249 247 242 239 239 237 233 231 232 231 231 232 230 227 227 227 228 228 229 231 232
279 276 277 280 281 278 274 273 274 274 275 274 272 271 270 269 268 267 266 265 264 263 264 265 265 265 265 265 263 261 260 259 258 258 258 259 260 261 262 262 263 263 264 267 268 268 268 266 265 264 265 265 266 265 263 262 262 263 264 263 261 258 253 249 248 247 241 238 238 238 235 233 233 234 233 233 233 232 230 229 229 230 230 230 231
275 275 277 280 281 279 276 274 275 275 276 276 275 275 274 274 273 272 271 269 268 268 268 269 269 269 268 267 266 265 263 262 262 262 261 261 261 262 262 262 263 264 266 268 270 270 269 267 265 264 264 265 266 266 265 263 261 261 261 261 260 259 256 253 250 248 243 238 237 238 238 236 234 235 235 234 235 235 235 233 232 233 232 231 231
273 274 278 280 279 278 276 274 275 276 276 276 276 276 275 274 274 273 272 271 271 270 270 270 271 270 270 270 269 267 266 265 264 264 263 262 261 261 260 261 261 263 264 266 268 269 268 266 264 263 263 264 265 267 267 265 263 261 260 259 258 256 256 254 252 250 246 240 237 237 237 238 237 236 236 236 236 237 237 237 237 237 237 236 234
274 275 278 279 277 277 277 276 275 275 276 276 276 276 275 274 274 273 272 272 271 271 271 271 272 272 271 271 270 269 268 268 268 268 268 267 266 265 263 262 262 262 263 264 266 267 266 264 262 262 261 262 263 264 265 265 264 263 261 260 258 257 255 254 253 251 249 245 240 238 237 238 239 238 238 237 237 238 238 239 239 239 239 239 237
275 277 278 277 276 277 279 279 279 279 279 278 278 279 279 279 278 276 275 274 273 273 273 274 274 274 274 273 272 271 270 269 269 270 270 270 271 270 269 268 267 266 266 266 266 267 266 264 263 262 261 260 261 262 261 261 261 262 261 260 259 258 257 256 254 252 251 248 245 241 239 238 238 239 239 239 238 239 239 240 240 240 240 240 239
273 275 277 275 274 277 279 279 281 282 283 281 280 281 282 283 283 283 282 281 280 279 279 279 279 278 278 277 276 274 272 271 271 270 270 270 271 271 271 270 269 269 269 268 268 269 268 267 265 263 262 260 260 261 260 260 259 259 259 259 258 258 257 256 256 254 252 251 249 246 243 241 240 240 239 239 240 240 240 240 241 241 241 241 241
270 272 273 272 273 277 279 278 279 280 281 280 279 279 280 281 282 283 283 283 282 282 282 282 282 281 280 279 278 277 276 274 273 273 272 272 271 271 270 269 268 268 268 268 268 268 268 268 266 265 263 262 262 262 261 260 258 257 257 257 256 256 256 256 255 254 252 251 250 248 247 246 244 243 242 241 241 241 241 241 241 241 241 241 242
267 268 270 270 271 275 277 278 278 279 280 279 278 278 278 279 281 282 282 281 280 280 281 281 282 281 280 279 278 277 277 276 275 275 274 274 273 271 269 268 268 268 268 267 267 267 266 266 266 265 264 264 263 263 262 260 259 257 256 255 254 254 255 255 255 254 253 251 250 249 248 248 247 246 245 244 243 243 243 243 243 243 242 242 242
267 268 269 270 273 275 276 276 278 279 279 279 277 277 278 279 281 281 281 280 280 280 280 281 281 281 281 280 279 278 277 276 276 275 275 274 273 272 270 269 268 268 268 267 267 266 266 266 266 266 265 264 263 262 261 259 258 258 257 256 255 255 256 256 256 255 255 253 251 250 249 248 248 247 247 246 246 245 244 245 245 245 244 244 243
267 268 269 272 278 279 276 276 278 280 280 279 278 278 279 280 280 280 280 280 280 281 282 282 282 282 282 281 280 279 278 276 275 274 274 273 272 271 269 268 267 267 267 267 267 266 266 266 266 266 265 265 264 262 260 259 258 258 257 257 256 257 257 258 258 258 258 256 254 252 250 249 248 248 247 247 247 247 246 246 246 246 246 246 246
269 271 273 276 279 278 275 275 279 281 281 280 280 280 280 281 281 281 281 282 282 283 283 284 284 284 283 282 281 280 279 277 276 275 274 273 272 270 269 267 266 267 267 267 266 266 266 265 265 265 265 264 264 263 262 260 259 258 258 257 256 256 257 259 260 261 261 259 257 254 253 250 249 248 247 248 248 248 247 248 248 248 247 247 247
272 275 276 277 277 275 274 276 279 281 281 281 282 282 282 282 283 283 283 283 284 284 285 285 285 285 284 283 282 281 279 278 277 276 275 274 273 271 270 268 267 266 266 266 266 265 266 265 265 265 265 264 263 263 263 262 261 260 259 258 257 257 257 258 259 260 261 261 259 257 255 253 251 250 248 248 248 248 247 247 249 249 248 248 248
275 276 276 276 275 275 275 276 278 280 281 281 282 283 283 284 284 284 285 285 285 286 286 287 286 285 284 283 282 280 278 278 277 276 275 274 273 271 270 268 267 267 266 266 266 266 267 267 267 266 265 264 263 263 264 264 263 262 260 259 258 257 257 258 258 259 259 260 260 259 256 255 254 253 251 249 248 249 248 248 248 249 249 249 249
273 274 274 274 275 275 276 276 277 278 279 281 282 283 284 284 284 284 285 285 286 286 286 285 285 283 282 282 281 280 278 277 276 275 274 273 272 270 268 268 267 267 267 267 268 268 268 268 267 266 265 265 265 265 266 265 264 263 262 260 259 259 258 258 259 258 258 258 259 260 258 255 254 255 254 252 250 249 249 248 248 249 250 249 249
272 273 274 275 275 276 276 276 276 277 278 279 280 281 282 282 282 283 283 284 284 284 284 283 282 282 281 280 279 279 280 279 276 273 272 273 272 271 269 268 268 268 268 268 268 268 268 268 267 267 267 267 268 268 267 266 266 266 265 263 262 261 261 260 260 260 259 258 258 259 259 257 254 253 254 254 253 252 251 250 249 249 250 250 250
272 274 274 275 275 276 276 276 276 277 279 279 279 279 279 279 280 281 281 281 282 281 281 280 280 280 279 275 270 269 272 273 271 271 270 270 272 272 270 269 269 269 269 269 269 268 268 268 268 267 268 268 269 269 268 267 267 267 266 265 264 263 263 262 262 262 261 260 258 258 259 258 256 254 254 254 254 254 253 253 252 251 250 250 251
271 271 271 272 273 274 275 276 277 278 279 279 278 277 277 278 279 279 279 280 280 279 279 280 281 281 277 270 265 263 263 264 264 265 266 268 270 271 268 267 268 269 270 270 270 270 270 271 270 269 268 267 267 268 267 267 267 267 266 266 265 264 264 263 263 262 262 261 260 259 259 260 259 257 256 256 255 255 255 255 255 254 253 252 251
267 267 268 269 270 272 273 275 276 278 278 277 276 276 276 277 277 277 278 279 279 279 279 279 278 276 270 266 264 263 262 261 260 260 262 265 267 266 266 269 270 270 271 271 271 271 272 271 271 270 269 268 267 267 267 267 267 267 267 266 265 264 264 264 264 264 263 263 262 261 261 262 262 261 260 259 258 257 256 256 256 256 255 254 253
266 266 267 268 269 270 272 273 274 276 276 276 276 277 277 276 277 277 278 278 278 277 277 274 270 265 263 262 260 259 258 256 257 257 259 263 265 265 268 272 272 271 272 273 273 274 275 275 274 273 272 271 271 271 271 271 271 270 269 268 267 265 264 264 264 264 265 265 264 264 263 264 264 263 262 261 260 259 258 257 256 256 256 256 255
267 268 269 270 270 271 272 273 274 275 276 276 276 277 277 277 278 278 278 277 277 275 274 272 269 266 264 262 260 260 260 260 259 260 261 264 267 268 270 272 273 273 275 276 276 277 277 278 278 278 278 278 278 278 278 277 277 275 274 273 271 268 266 265 265 264 265 265 265 265 264 264 265 264 263 262 261 260 260 259 258 257 257 257 256
268 269 270 271 272 273 274 275 275 276 276 277 277 277 277 277 277 277 276 275 274 274 272 270 268 266 265 264 263 264 264 265 265 265 266 268 270 271 272 274 275 276 277 278 279 279 279 280 281 281 282 282 282 283 282 282 281 280 278 276 274 272 270 268 266 265 265 265 266 265 265 264 264 264 264 263 263 262 262 261 261 259 259 258 258
268 269 270 271 272 273 274 275 275 276 276 276 275 275 274 274 274 273 272 272 271 271 269 268 267 266 264 264 265 265 265 266 267 267 268 269 270 271 273 274 274 275 276 277 278 280 281 282 282 282 283 283 283 283 282 282 282 281 280 278 276 274 272 270 268 267 267 267 267 266 265 265 264 264 263 263 263 264 263 263 262 261 260 259 259
269 269 270 271 272 273 273 273 274 274 273 272 272 272 271 271 271 271 270 270 269 268 267 267 268 267 266 266 266 266 266 266 267 268 268 269 270 271 272 273 273 274 274 276 277 278 279 280 281 282 282 282 282 281 281 281 281 280 279 278 277 275 274 273 271 270 270 270 269 267 266 266 266 265 264 263 262 262 262 262 261 261 260 259 259
Height
10737 10735 10734 10733 10732 10730 10727 10727 10728 10727 10727 10727 10725 10724 10722 10720 10717 10715 10714 10714 10714 10714 10715 10716 10717 10718 10719 10719 10719 10720 10721 10721 10722 10722 10720 10717 10716 10715 10715 10714 10713 10713 10712 10712 10712 10711 10711 10712 10713 10713 10714 10714 10715 10716 10716 10717 10717 10718 10719 10720 10720 10721 10722 10723 10724 10725 10725 10726 10727 10728 10729 10730 10732 10733 10735 10737 10738 10740 10741 10742 10743 10745 10746 10747 10747
10735 10733 10731 10730 10729 10728 10726 10726 10727 10727 10727 10727 10726 10725 10724 10721 10717 10714 10713 10712 10712 10713 10713 10714 10715 10716 10717 10717 10717 10718 10718 10719 10719 10720 10719 10716 10713 10712 10711 10710 10709 10709 10708 10708 10708 10707 10707 10708 10708 10709 10709 10710 10711 10711 10712 10712 10713 10714 10715 10716 10717 10718 10718 10719 10720 10721 10722 10722 10723 10724 10725 10726 10727 10729 10731 10733 10734 10736 10738 10739 10740 10741 10743 10744 10745
10731 10729 10729 10728 10726 10725 10725 10724 10725 10725 10726 10726 10724 10723 10722 10720 10717 10713 10711 10711 10710 10710 10711 10712 10713 10714 10715 10715 10715 10716 10716 10717 10717 10719 10718 10715 10711 10708 10707 10706 10705 10705 10704 10703 10703 10703 10703 10703 10704 10704 10705 10705 10706 10707 10707 10708 10709 10710 10711 10713 10713 10714 10715 10715 10716 10717 10718 10718 10719 10720 10721 10722 10723 10725 10727 10729 10730 10732 10734 10735 10736 10738 10739 10741 10742
10727 10726 10726 10725 10723 10722 10722 10722 10722 10722 10723 10723 10723 10721 10719 10717 10715 10711 10709 10709 10708 10708 10708 10710 10711 10712 10713 10713 10713 10714 10715 10715 10715 10717 10716 10712 10708 10705 10702 10701 10699 10699 10698 10698 10698 10699 10699 10699 10699 10700 10700 10701 10702 10702 10703 10704 10705 10707 10708 10709 10710 10711 10711 10711 10712 10712 10713 10714 10716 10717 10717 10718 10720 10721 10723 10725 10726 10728 10730 10732 10733 10734 10736 10737 10739
10721 10722 10722 10720 10719 10718 10718 10718 10718 10718 10719 10720 10720 10719 10717 10714 10711 10707 10706 10706 10706 10706 10707 10708 10710 10710 10710 10711 10711 10712 10712 10712 10712 10714 10713 10708 10703 10699 10697 10694 10692 10693 10693 10693 10694 10694 10694 10695 10695 10695 10696 10696 10697 10698 10699 10700 10701 10703 10704 10705 10706 10707 10708 10708 10708 10709 10710 10711 10712 10714 10715 10716 10717 10718 10719 10721 10722 10724 10726 10728 10729 10731 10732 10733 10735
10715 10716 10716 10714 10713 10713 10713 10712 10712 10714 10715 10715 10717 10716 10714 10712 10707 10704 10705 10706 10704 10704 10705 10706 10707 10707 10707 10708 10708 10709 10709 10709 10709 10709 10708 10703 10696 10693 10692 10688 10687 10688 10689 10689 10690 10690 10690 10691 10691 10692 10692 10693 10694 10695 10696 10697 10697 10699 10700 10701 10702 10703 10704 10704 10705 10706 10707 10708 10709 10710 10711 10712 10713 10714 10716 10717 10718 10720 10722 10724 10725 10727 10728 10730 10731
10710 10711 10712 10711 10708 10708 10709 10708 10707 10708 10710 10711 10712 10711 10710 10707 10704 10702 10704 10704 10702 10702 10703 10702 10703 10703 10703 10705 10706 10706 10706 10706 10706 10705 10702 10697 10692 10690 10689 10686 10685 10687 10686 10686 10687 10687 10688 10688 10688 10688 10688 10689 10690 10691 10692 10693 10694 10695 10696 10698 10699 10699 10699 10700 10701 10702 10703 10704 10705 10706 10707 10708 10709 10710 10711 10712 10714 10715 10717 10719 10721 10723 10724 10726 10727
10705 10706 10708 10708 10704 10702 10703 10704 10703 10702 10704 10705 10705 10706 10705 10703 10701 10701 10702 10702 10700 10701 10702 10700 10700 10701 10701 10702 10703 10703 10703 10703 10701 10699 10696 10695 10692 10690 10689 10687 10686 10686 10685 10685 10685 10685 10686 10686 10686 10685 10685 10686 10687 10688 10688 10689 10690 10691 10692 10693 10694 10695 10695 10696 10697 10698 10699 10700 10701 10702 10703 10704 10705 10707 10707 10708 10709 10711 10713 10715 10717 10719 10720 10722 10723
10700 10702 10703 10704 10702 10698 10697 10698 10696 10696 10699 10700 10699 10701 10702 10701 10699 10699 10700 10700 10698 10700 10700 10698 10698 10699 10698 10698 10698 10699 10700 10700 10696 10692 10692 10692 10690 10689 10688 10686 10684 10683 10683 10684 10684 10683 10683 10683 10683 10682 10682 10683 10683 10684 10684 10685 10686 10687 10688 10689 10690 10691 10691 10691 10692 10693 10694 10695 10697 10698 10699 10700 10702 10703 10704 10705 10706 10707 10709 10711 10713 10715 10717 10718 10720
10694 10695 10697 10698 10697 10695 10693 10691 10687 10689 10694 10695 10694 10696 10697 10696 10696 10695 10696 10697 10697 10698 10698 10697 10696 10696 10695 10694 10694 10694 10695 10695 10691 10688 10687 10687 10686 10686 10686 10684 10683 10681 10680 10681 10682 10682 10681 10680 10679 10679 10679 10680 10680 10680 10680 10681 10681 10682 10684 10685 10686 10686 10687 10687 10688 10689 10690 10691 10692 10693 10695 10696 10698 10699 10700 10701 10702 10703 10704 10706 10709 10711 10713 10715 10717
10686 10688 10689 10691 10691 10691 10690 10686 10681 10683 10689 10691 10690 10690 10691 10690 10690 10691 10692 10694 10694 10695 10695 10695 10693 10691 10690 10689 10689 10689 10690 10690 10687 10684 10684 10682 10681 10682 10682 10683 10683 10681 10678 10678 10680 10680 10678 10676 10675 10675 10675 10676 10677 10677 10677 10677 10678 10679 10680 10681 10681 10682 10683 10684 10685 10685 10686 10687 10687 10688 10689 10691 10692 10694 10695 10696 10697 10698 10700 10702 10704 10707 10709 10711 10713
10679 10680 10682 10684 10684 10685 10685 10682 10678 10678 10683 10687 10686 10684 10684 10684 10684 10686 10689 10691 10692 10692 10692 10691 10689 10687 10686 10684 10684 10685 10686 10685 10683 10681 10681 10679 10677 10678 10678 10680 10682 10680 10678 10678 10678 10676 10673 10671 10670 10671 10671 10672 10673 10674 10674 10674 10675 10675 10676 10677 10678 10679 10680 10681 10681 10682 10683 10683 10683 10684 10684 10685 10687 10688 10690 10691 10693 10694 10696 10698 10700 10703 10705 10707 10709
10673 10674 10675 10677 10678 10679 10680 10678 10676 10676 10678 10681 10681 10679 10679 10678 10680 10682 10686 10688 10690 10690 10689 10686 10684 10683 10682 10681 10682 10682 10683 10682 10680 10678 10678 10676 10675 10675 10675 10677 10680 10679 10676 10676 10675 10671 10668 10667 10666 10668 10669 10669 10670 10670 10671 10671 10672 10672 10673 10674 10675 10676 10676 10677 10677 10678 10678 10679 10679 10679 10679 10680 10681 10683 10685 10686 10688 10690 10692 10694 10696 10698 10701 10703 10705
10667 10668 10669 10670 10671 10672 10673 10674 10674 10674 10674 10675 10676 10675 10675 10675 10676 10679 10683 10685 10686 10687 10686 10682 10680 10679 10679 10677 10677 10678 10679 10678 10676 10674 10674 10673 10672 10672 10672 10674 10676 10676 10673 10672 10670 10666 10665 10665 10664 10666 10667 10667 10667 10668 10669 10669 10670 10670 10670 10671 10671 10672 10672 10673 10674 10674 10674 10675 10676 10676 10675 10676 10677 10678 10680 10681 10683 10685 10687 10690 10692 10694 10697 10699 10701
10661 10662 10662 10663 10665 10666 10667 10669 10671 10672 10671 10671 10671 10671 10671 10671 10672 10676 10680 10681 10682 10682 10681 10678 10676 10677 10676 10674 10673 10674 10674 10673 10672 10672 10673 10672 10670 10669 10669 10670 10672 10672 10670 10668 10667 10663 10662 10662 10662 10663 10664 10664 10665 10665 10666 10667 10667 10667 10667 10667 10667 10668 10668 10669 10670 10670 10671 10671 10672 10672 10672 10672 10673 10674 10675 10677 10679 10681 10683 10685 10687 10690 10693 10695 10697
10657 10657 10657 10658 10660 10661 10662 10664 10667 10668 10668 10667 10667 10667 10667 10667 10670 10674 10676 10677 10678 10677 10676 10674 10673 10674 10674 10671 10670 10670 10669 10669 10669 10669 10670 10669 10667 10666 10666 10667 10668 10667 10665 10665 10664 10661 10659 10658 10658 10660 10661 10662 10663 10663 10664 10664 10665 10664 10664 10664 10664 10664 10665 10665 10666 10666 10667 10667 10668 10669 10669 10669 10669 10670 10670 10672 10674 10677 10679 10681 10683 10686 10688 10690 10693
10653 10653 10654 10654 10656 10657 10659 10660 10662 10663 10664 10664 10664 10664 10664 10664 10667 10671 10672 10672 10672 10672 10671 10670 10670 10671 10670 10669 10668 10666 10663 10665 10667 10666 10666 10665 10665 10664 10663 10663 10663 10663 10661 10660 10659 10657 10655 10655 10656 10657 10658 10658 10659 10659 10660 10661 10661 10661 10661 10661 10661 10661 10661 10661 10661 10662 10663 10664 10664 10665 10665 10665 10666 10666 10667 10668 10671 10673 10675 10677 10679 10681 10683 10686 10688
10650 10650 10650 10651 10653 10654 10655 10657 10658 10659 10660 10661 10661 10660 10660 10660 10663 10666 10666 10667 10667 10666 10666 10666 10666 10667 10668 10666 10665 10662 10660 10661 10663 10663 10662 10661 10662 10662 10660 10659 10659 10659 10657 10655 10654 10654 10653 10652 10653 10654 10654 10654 10654 10654 10655 10655 10655 10656 10656 10657 10656 10656 10656 10656 10657 10658 10659 10660 10660 10661 10661 10661 10661 10662 10664 10666 10667 10669 10671 10672 10674 10677 10679 10682 10684
10647 10647 10648 10649 10650 10651 10652 10654 10655 10656 10657 10657 10658 10657 10656 10657 10658 10660 10660 10661 10661 10661 10662 10662 10662 10662 10664 10664 10662 10659 10657 10657 10658 10659 10658 10658 10658 10658 10657 10656 10655 10655 10653 10651 10651 10651 10650 10650 10649 10649 10650 10649 10649 10649 10649 10649 10649 10649 10650 10651 10651 10651 10651 10652 10653 10654 10654 10655 10656 10656 10657 10657 10658 10658 10660 10662 10661 10662 10665 10668 10671 10673 10676 10679 10681
10643 10644 10645 10646 10647 10648 10649 10651 10652 10653 10653 10654 10654 10654 10654 10653 10654 10655 10656 10656 10657 10657 10658 10658 10658 10658 10659 10660 10659 10656 10654 10653 10653 10654 10654 10654 10654 10654 10652 10651 10650 10650 10649 10648 10647 10647 10646 10646 10645 10645 10644 10644 10644 10644 10644 10644 10644 10644 10644 10644 10645 10646 10646 10647 10648 10649 10649 10650 10651 10652 10653 10653 10654 10655 10656 10657 10657 10658 10661 10665 10668 10670 10672 10675 10677
10639 10640 10641 10643 10644 10645 10646 10647 10648 10649 10650 10650 10651 10651 10651 10650 10650 10651 10652 10653 10654 10654 10655 10654 10655 10655 10655 10655 10654 10653 10652 10650 10648 10648 10649 10650 10650 10649 10648 10647 10646 10646 10645 10644 10644 10643 10642 10642 10641 10640 10639 10638 10637 10637 10638 10638 10638 10638 10638 10639 10639 10640 10641 10641 10642 10643 10644 10645 10646 10648 10649 10650 10650 10651 10652 10654 10655 10657 10659 10662 10664 10666 10668 10671 10673
10635 10636 10637 10638 10640 10641 10642 10643 10644 10645 10646 10647 10647 10648 10648 10648 10648 10648 10649 10650 10651 10651 10651 10651 10652 10651 10651 10650 10650 10650 10649 10647 10645 10644 10644 10645 10645 10644 10643 10643 10643 10642 10641 10641 10640 10639 10638 10637 10636 10635 10633 10632 10631 10631 10631 10632 10632 10632 10632 10632 10633 10634 10634 10635 10636 10638 10639 10640 10641 10643 10644 10646 10646 10647 10649 10650 10652 10655 10657 10659 10660 10662 10664 10667 10668
10630 10631 10633 10634 10635 10636 10637 10638 10639 10641 10642 10643 10643 10644 10644 10645 10645 10645 10645 10646 10646 10647 10646 10646 10646 10646 10646 10645 10645 10645 10644 10643 10642 10640 10639 10639 10639 10639 10640 10640 10639 10638 10637 10637 10636 10635 10633 10632 10631 10630 10629 10627 10626 10626 10626 10626 10626 10626 10626 10626 10626 10627 10628 10629 10630 10632 10633 10634 10636 10638 10640 10641 10642 10643 10645 10647 10649 10652 10655 10656 10655 10656 10659 10660 10662
10626 10627 10628 10629 10630 10631 10632 10633 10634 10635 10636 10637 10638 10639 10639 10640 10640 10640 10640 10640 10640 10640 10640 10640 10640 10640 10640 10640 10640 10640 10639 10639 10638 10636 10634 10634 10634 10635 10635 10635 10635 10634 10633 10632 10631 10630 10629 10628 10627 10626 10625 10623 10622 10622 10622 10621 10621 10621 10621 10621 10621 10621 10622 10623 10624 10625 10627 10628 10630 10632 10635 10636 10637 10638 10640 10642 10645 10647 10649 10650 10650 10651 10652 10654 10656
10623 10623 10624 10624 10625 10626 10627 10628 10628 10629 10630 10631 10632 10632 10633 10633 10634 10634 10634 10634 10634 10634 10634 10634 10634 10634 10634 10634 10634 10634 10634 10633 10633 10631 10630 10630 10630 10630 10630 10630 10629 10629 10628 10628 10627 10626 10625 10625 10624 10622 10621 10620 10619 10618 10618 10617 10617 10616 10616 10616 10616 10616 10616 10617 10618 10620 10621 10622 10624 10627 10629 10631 10633 10634 10635 10637 10639 10641 10642 10643 10644 10645 10647 10647 10649
10619 10619 10620 10620 10621 10622 10622 10623 10624 10625 10625 10626 10626 10626 10627 10627 10628 10628 10628 10628 10628 10628 10628 10628 10628 10628 10628 10627 10627 10628 10628 10627 10626 10626 10625 10624 10624 10624 10625 10624 10624 10623 10623 10623 10622 10621 10621 10620 10619 10618 10617 10616 10615 10614 10614 10613 10613 10613 10612 10612 10612 10612 10612 10612 10613 10615 10616 10618 10619 10621 10624 10626 10628 10629 10630 10632 10634 10636 10637 10637 10639 10641 10642 10642 10643
10615 10616 10616 10616 10617 10618 10618 10619 10620 10620 10621 10621 10621 10622 10622 10622 10622 10622 10622 10622 10622 10622 10622 10622 10622 10622 10622 10621 10621 10621 10621 10621 10620 10620 10619 10619 10619 10618 10618 10618 10618 10618 10617 10617 10616 10616 10615 10615 10614 10613 10613 10612 10611 10610 10610 10609 10609 10609 10608 10608 10608 10608 10608 10608 10609 10610 10612 10613 10615 10617 10619 10621 10623 10624 10625 10626 10628 10630 10632 10633 10634 10636 10638 10639 10640
10612 10612 10612 10613 10613 10614 10614 10615 10616 10616 10616 10617 10617 10617 10617 10617 10617 10617 10617 10617 10616 10617 10617 10617 10617 10617 10616 10616 10615 10615 10615 10614 10614 10614 10613 10613 10613 10613 10612 10612 10612 10612 10612 10612 10611 10610 10610 10609 10609 10608 10608 10607 10607 10606 10606 10605 10605 10605 10605 10604 10604 10604 10604 10605 10605 10606 10607 10609 10610 10612 10614 10616 10618 10619 10620 10621 10623 10625 10626 10627 10628 10630 10633 10635 10636
10607 10608 10608 10609 10609 10610 10610 10611 10611 10611 10612 10612 10612 10612 10612 10611 10611 10611 10611 10611 10611 10611 10611 10611 10611 10611 10610 10610 10609 10609 10608 10608 10608 10608 10607 10607 10607 10607 10607 10607 10607 10606 10606 10606 10606 10605 10605 10604 10604 10603 10603 10602 10602 10601 10601 10601 10600 10600 10601 10601 10601 10601 10601 10601 10602 10602 10603 10604 10605 10607 10608 10610 10612 10614 10615 10616 10617 10619 10620 10621 10623 10624 10627 10629 10630
10602 10602 10603 10604 10605 10605 10606 10606 10606 10607 10607 10607 10606 10606 10606 10606 10606 10606 10606 10606 10606 10606 10605 10605 10605 10605 10605 10604 10604 10603 10603 10602 10602 10601 10601 10601 10601 10600 10600 10600 10600 10600 10600 10600 10600 10600 10599 10599 10598 10598 10597 10597 10597 10596 10596 10596 10596 10596 10596 10596 10597 10597 10597 10597 10597 10598 10599 10600 10601 10602 10603 10605 10607 10608 10610 10611 10611 10613 10614 10616 10617 10619 10620 10622 10624
10597 10597 10598 10598 10600 10600 10601 10601 10602 10602 10602 10602 10602 10601 10601 10601 10601 10601 10601 10601 10600 10600 10600 10600 10599 10599 10599 10598 10598 10597 10597 10596 10596 10595 10595 10594 10594 10594 10593 10593 10593 10593 10594 10594 10594 10593 10593 10593 10593 10592 10592 10592 10591 10591 10591 10591 10591 10591 10591 10591 10592 10592 10592 10593 10593 10593 10594 10595 10596 10597 10598 10600 10601 10602 10604 10605 10606 10607 10608 10609 10611 10613 10615 10617 10618
10591 10591 10592 10592 10593 10594 10595 10596 10596 10596 10596 10596 10596 10596 10596 10596 10596 10596 10596 10595 10595 10595 10594 10594 10594 10593 10593 10592 10592 10591 10591 10590 10590 10590 10589 10589 10588 10588 10587 10586 10586 10587 10587 10587 10587 10586 10586 10586 10586 10586 10586 10586 10585 10585 10585 10585 10585 10585 10586 10587 10587 10587 10588 10588 10588 10589 10589 10590 10591 10592 10593 10594 10595 10596 10598 10599 10600 10601 10601 10603 10604 10606 10608 10610 10611
10584 10585 10585 10586 10587 10587 10588 10588 10589 10589 10589 10590 10590 10590 10590 10590 10590 10590 10590 10590 10589 10589 10589 10588 10588 10588 10587 10587 10586 10586 10585 10585 10584 10584 10583 10583 10582 10582 10581 10580 10580 10580 10580 10580 10580 10580 10580 10580 10580 10580 10580 10580 10579 10579 10579 10579 10579 10579 10580 10581 10582 10582 10583 10583 10584 10584 10584 10585 10586 10587 10587 10588 10589 10590 10591 10592 10593 10594 10595 10596 10597 10599 10601 10602 10604
10578 10579 10579 10580 10580 10580 10581 10581 10582 10582 10582 10582 10582 10582 10582 10582 10582 10582 10582 10582 10582 10582 10581 10581 10581 10581 10580 10580 10580 10579 10579 10578 10577 10577 10576 10576 10575 10575 10574 10574 10573 10573 10573 10573 10573 10573 10573 10573 10573 10573 10573 10573 10572 10572 10573 10572 10573 10573 10574 10575 10575 10576 10577 10577 10578 10579 10579 10580 10580 10581 10582 10582 10583 10584 10585 10586 10586 10587 10588 10589 10590 10592 10593 10595 10596
10573 10573 10574 10574 10574 10574 10575 10575 10575 10575 10575 10575 10575 10575 10575 10575 10575 10575 10575 10574 10574 10573 10573 10573 10573 10573 10573 10572 10572 10572 10571 10571 10570 10569 10569 10569 10568 10567 10567 10566 10566 10566 10566 10566 10566 10567 10566 10566 10566 10566 10566 10566 10566 10566 10566 10566 10567 10567 10568 10568 10569 10569 10570 10570 10571 10571 10573 10574 10574 10575 10576 10576 10577 10578 10579 10580 10580 10581 10581 10582 10583 10584 10585 10587 10588
10566 10567 10568 10568 10568 10568 10568 10568 10568 10568 10568 10569 10569 10569 10569 10569 10569 10569 10569 10568 10568 10567 10567 10566 10566 10566 10566 10565 10564 10564 10563 10563 10562 10561 10561 10560 10560 10560 10560 10559 10558 10558 10558 10559 10559 10559 10559 10559 10559 10559 10558 10558 10559 10559 10559 10560 10560 10561 10561 10561 10562 10562 10562 10563 10564 10564 10565 10567 10567 10568 10569 10569 10570 10571 10572 10573 10574 10574 10575 10576 10576 10577 10578 10579 10580
10559 10560 10561 10561 10562 10562 10561 10561 10561 10561 10561 10562 10562 10562 10562 10562 10562 10562 10562 10561 10561 10561 10560 10560 10560 10559 10559 10558 10557 10557 10556 10556 10555 10554 10553 10552 10552 10552 10552 10552 10551 10550 10550 10551 10551 10551 10551 10551 10551 10551 10551 10551 10551 10551 10552 10553 10553 10553 10554 10554 10554 10555 10555 10556 10557 10558 10558 10559 10560 10561 10562 10562 10563 10564 10565 10565 10566 10567 10568 10569 10569 10570 10571 10572 10573
10553 10553 10553 10554 10554 10554 10554 10554 10553 10553 10554 10554 10554 10554 10554 10554 10555 10555 10554 10554 10554 10553 10553 10553 10553 10552 10552 10551 10550 10550 10549 10548 10547 10547 10546 10545 10545 10544 10544 10545 10544 10543 10543 10544 10543 10543 10542 10543 10543 10543 10543 10542 10542 10543 10544 10545 10546 10546 10546 10546 10547 10547 10547 10548 10549 10550 10550 10551 10552 10553 10553 10554 10555 10556 10557 10558 10558 10558 10560 10561 10562 10562 10563 10565 10565
10546 10546 10546 10546 10546 10546 10546 10546 10545 10545 10545 10546 10546 10546 10546 10546 10546 10547 10546 10546 10546 10545 10545 10545 10545 10545 10545 10544 10543 10542 10542 10541 10540 10540 10539 10538 10537 10537 10538 10538 10537 10536 10536 10537 10536 10534 10534 10535 10535 10535 10535 10534 10535 10535 10535 10536 10538 10539 10538 10538 10539 10539 10540 10540 10541 10542 10542 10542 10543 10544 10544 10545 10546 10547 10548 10549 10549 10550 10551 10553 10553 10553 10554 10556 10557
10539 10539 10539 10538 10538 10538 10538 10538 10538 10537 10537 10537 10537 10536 10536 10537 10537 10538 10538 10538 10538 10537 10538 10538 10538 10538 10538 10537 10536 10535 10534 10533 10533 10532 10532 10531 10530 10530 10530 10530 10530 10530 10530 10529 10528 10527 10527 10528 10528 10528 10527 10527 10528 10528 10528 10528 10530 10530 10530 10530 10530 10531 10531 10531 10531 10533 10533 10533 10533 10534 10535 10536 10537 10538 10539 10540 10540 10540 10542 10544 10544 10543 10545 10547 10547
10531 10531 10531 10530 10530 10530 10530 10530 10530 10530 10530 10529 10528 10527 10528 10528 10528 10528 10529 10529 10529 10530 10531 10531 10531 10531 10531 10530 10529 10528 10527 10527 10526 10525 10524 10524 10523 10523 10523 10523 10523 10523 10523 10522 10521 10521 10521 10521 10522 10522 10521 10521 10522 10522 10521 10521 10522 10522 10522 10522 10521 10522 10522 10522 10522 10523 10524 10524 10523 10524 10525 10527 10528 10528 10529 10530 10531 10530 10532 10535 10535 10533 10534 10536 10537
10524 10523 10523 10522 10522 10523 10522 10522 10522 10522 10523 10523 10521 10519 10520 10519 10519 10519 10520 10520 10521 10523 10524 10525 10526 10526 10525 10524 10523 10521 10520 10519 10518 10517 10516 10516 10515 10515 10515 10515 10516 10516 10516 10516 10515 10514 10514 10515 10515 10515 10514 10514 10515 10515 10514 10514 10514 10514 10513 10513 10514 10513 10513 10513 10512 10512 10515 10516 10515 10514 10514 10516 10518 10519 10518 10519 10521 10521 10522 10524 10525 10524 10524 10525 10527
10517 10515 10515 10514 10514 10514 10514 10514 10515 10515 10517 10517 10515 10512 10512 10511 10510 10511 10512 10513 10514 10515 10517 10519 10520 10521 10521 10520 10519 10516 10514 10511 10510 10509 10508 10508 10507 10507 10507 10508 10508 10509 10509 10509 10508 10508 10508 10508 10508 10508 10508 10507 10507 10508 10507 10506 10506 10507 10506 10506 10506 10506 10505 10505 10505 10503 10504 10507 10508 10506 10503 10504 10507 10510 10509 10508 10510 10511 10512 10513 10514 10514 10514 10514 10516
10510 10508 10506 10505 10506 10506 10506 10506 10507 10508 10510 10510 10507 10505 10504 10503 10503 10504 10504 10506 10507 10508 10511 10513 10514 10516 10517 10515 10513 10512 10508 10504 10502 10501 10501 10500 10499 10499 10500 10500 10501 10501 10502 10501 10501 10502 10501 10500 10501 10501 10501 10499 10500 10501 10500 10498 10499 10500 10498 10498 10498 10498 10498 10497 10497 10495 10494 10496 10499 10498 10495 10492 10495 10500 10499 10498 10500 10501 10501 10502 10503 10503 10503 10504 10505
10504 10501 10498 10498 10498 10498 10497 10497 10498 10500 10503 10502 10497 10496 10496 10495 10495 10496 10497 10499 10501 10501 10504 10506 10507 10511 10511 10506 10504 10503 10501 10498 10495 10494 10493 10492 10492 10492 10493 10493 10494 10494 10495 10494 10494 10494 10494 10494 10493 10494 10493 10492 10492 10493 10492 10490 10491 10491 10490 10489 10489 10489 10489 10489 10488 10487 10485 10486 10489 10490 10488 10484 10485 10489 10490 10489 10490 10491 10491 10491 10491 10491 10492 10493 10493
10494 10492 10491 10491 10491 10490 10490 10489 10489 10491 10495 10494 10489 10487 10488 10487 10487 10487 10488 10491 10494 10495 10497 10500 10502 10504 10501 10496 10495 10494 10492 10490 10488 10487 10486 10485 10485 10486 10486 10486 10487 10487 10487 10487 10486 10486 10487 10487 10486 10485 10485 10484 10484 10485 10484 10482 10482 10482 10481 10480 10479 10479 10480 10479 10478 10478 10477 10476 10478 10481 10481 10477 10474 10478 10480 10479 10480 10480 10480 10480 10480 10479 10479 10480 10480
10481 10481 10481 10482 10482 10482 10482 10482 10482 10483 10485 10483 10480 10479 10478 10478 10478 10479 10479 10482 10486 10488 10489 10490 10492 10492 10489 10487 10487 10486 10484 10481 10480 10480 10479 10478 10478 10479 10479 10479 10479 10480 10479 10478 10478 10478 10478 10477 10477 10476 10476 10475 10475 10476 10475 10474 10473 10473 10472 10471 10470 10470 10471 10470 10469 10468 10467 10467 10468 10471 10473 10469 10464 10467 10470 10469 10468 10468 10468 10467 10468 10468 10467 10466 10466
10470 10471 10471 10470 10471 10473 10473 10473 10474 10475 10476 10474 10470 10469 10468 10468 10469 10469 10470 10472 10475 10478 10479 10479 10478 10478 10477 10477 10477 10477 10476 10474 10473 10473 10473 10472 10472 10472 10471 10471 10470 10470 10469 10469 10469 10469 10468 10467 10467 10466 10466 10465 10465 10465 10464 10463 10463 10462 10462 10461 10460 10460 10461 10461 10460 10458 10457 10457 10457 10461 10464 10460 10455 10455 10458 10457 10456 10456 10455 10454 10456 10457 10456 10454 10453
10460 10461 10461 10461 10461 10462 10463 10463 10463 10465 10467 10464 10460 10459 10459 10458 10459 10459 10461 10462 10464 10466 10468 10467 10467 10467 10466 10466 10466 10467 10466 10465 10464 10464 10464 10463 10463 10462 10462 10461 10461 10460 10459 10458 10459 10459 10458 10457 10457 10456 10456 10455 10454 10454 10453 10452 10452 10452 10452 10451 10450 10450 10451 10451 10450 10449 10448 10447 10446 10450 10452 10450 10446 10446 10446 10445 10445 10444 10444 10443 10443 10445 10445 10443 10441
10451 10451 10451 10452 10453 10452 10453 10453 10452 10454 10457 10454 10449 10449 10449 10448 10449 10449 10450 10452 10454 10455 10456 10456 10456 10457 10456 10456 10456 10456 10456 10455 10454 10454 10454 10454 10453 10453 10452 10452 10452 10451 10449 10449 10449 10449 10448 10448 10448 10447 10446 10446 10445 10444 10443 10442 10441 10441 10441 10441 10440 10440 10441 10441 10441 10441 10439 10436 10435 10439 10440 10438 10436 10436 10436 10436 10435 10433 10432 10431 10430 10431 10432 10431 10429
10441 10441 10442 10443 10443 10442 10442 10442 10441 10443 10446 10443 10438 10438 10438 10438 10438 10439 10441 10443 10444 10445 10445 10446 10446 10446 10446 10446 10446 10446 10446 10446 10446 10445 10445 10445 10445 10444 10444 10443 10443 10443 10441 10440 10440 10440 10439 10439 10438 10437 10437 10437 10436 10435 10434 10433 10432 10432 10432 10431 10431 10432 10432 10432 10431 10431 10430 10426 10424 10427 10430 10427 10426 10425 10424 10425 10426 10423 10419 10417 10416 10416 10416 10417 10416